Regional Weather Roundup
Issued by NWS

Home | Current Version | Previous Version | Graphics & Text | Print | Product List | Glossary On
Versions: 1 2 3 4 5 6 7 8 9 10 11 12 13 14 15 16 17 18 19 20 21 22 23 24 25 26 27 28 29 30 31 32 33 34 35 36 37 38 39 40 41 42 43 44 45 46 47 48 49 50
000
ASUS45 KCYS 032010
RWRWY

WYOMING REGIONAL WEATHER ROUNDUP
NATIONAL WEATHER SERVICE CHEYENNE WY
200 PM MDT TUE MAY 03 2016

NOTE:  "FAIR" INDICATES FEW OR NO CLOUDS BELOW 12,000 FEET
WITH NO SIGNIFICANT WEATHER AND/OR OBSTRUCTIONS TO VISIBILITY.

WYZ001-032100-
YELLOWSTONE NATIONAL PARK

CITY           SKY/WX    TMP DP  RH WIND       PRES   REMARKS
LK YELLOWSTONE   N/A     52  18  26 SE5       30.35F
W YELLOWSTONE  NOT AVBL

$$
WYZ002>013-054>058-071-098>099-032100-
NORTHERN WYOMING

CITY           SKY/WX    TMP DP  RH WIND       PRES   REMARKS
JACKSON        FAIR      64  25  22 SW7       30.27F
CODY           FAIR      70  30  23 W5        30.18F
GREYBULL       FAIR      73  28  18 S5        30.15F
WORLAND        FAIR      69  35  28 E7        30.17F
SHERIDAN       FAIR      73  38  27 NE8       30.16F
BUFFALO        FAIR      69  35  28 VRB3      30.20S
GILLETTE       FAIR      69  40  34 NW15      30.16F
HULETT         FAIR      70  36  28 N13G21    30.16S
NEWCASTLE      FAIR      70  30  23 NW8       30.13S

$$
WYZ014>020-022>026-101>103-032100-
CENTRAL WYOMING

CITY           SKY/WX    TMP DP  RH WIND       PRES   REMARKS
BIG PINEY      FAIR      64  19  17 SW7       30.29F
PINEDALE       FAIR      61  19  20 NE3       30.29S
DUBOIS         FAIR      66  18  15 E8G16     30.25F
LANDER         FAIR      66  30  26 SE7       30.22F
RIVERTON       FAIR      65  31  28 E6        30.23F
CASPER         FAIR      64  33  31 VRB6      30.22F
DOUGLAS        FAIR      67  36  31 NW14      30.20F

$$
WYZ021-027>030-104>119-032100-
SOUTHERN WYOMING

CITY           SKY/WX    TMP DP  RH WIND       PRES   REMARKS
EVANSTON       FAIR      63  23  21 VRB6      30.29F
KEMMERER         N/A     63  18  17 CALM      30.31F
FORT BRIDGER   CLEAR     64  19  17 SE5       30.33F
ROCK SPRINGS   FAIR      62  22  21 MISG      30.29F
DIXON          FAIR      63  30  28 W6        30.29F
RAWLINS        FAIR      61  28  28 MISG      30.28F
SARATOGA       FAIR      59  28  31 W9        30.30S
LARAMIE        FAIR      53  32  44 NW10G21   30.29S
CHEYENNE       FAIR      59  32  36 NW20      30.23F
TORRINGTON     PTSUNNY   71  36  27 NW14G20   30.13F
PINE BLUFFS    FAIR      63  34  34 N23G29    30.19S

$$



USA.gov is the U.S. government's official web portal to all federal, state and local government web resources and services.